Weather past 2 weeks in Malakal, South Sudan

Now
79 °F

Pleasantly warm.


Feels Like: 78 °F
Forecast: 79 / 106 °F
Wind: 6 mph from Northeast

Location: Khartoum Airport

Current Time: Mar 3, 2015 at 8:36:59 AM

Latest Report: Mar 3, 2015 at 8:00 AM


Visibility: 4 mi

Pressure: 29.83 "Hg

Humidity: 26%

Dew point: 41 °F

Location of MalakalLocation

Historic Weather in Malakal — Graph

°F

Malakal temperature yesterday

Maximum temperature yesterday: 104 °F (at 4:00 PM)
Minimum temperature yesterday: 81 °F (at 6:00 AM)
Average temperature yesterday: 91 °F

Past Weeks' High & Low Weather Summary

 TemperatureHumidityPressure
High106 °F (Feb 27, 3:00 PM)34% (Feb 19, 7:00 AM)30.01 "Hg (Feb 19, 7:00 AM)
Low61 °F (Feb 21, 8:00 AM)1% (Feb 25, 2:00 PM)29.68 "Hg (Feb 22, 9:30 AM)
Average85 °F15%29.83 "Hg
* Reported Feb 16 7:00 AM — Mar 3 7:00 AM, Malakal, Weather by CustomWeather, © 2015

Note: Actual official high and low records may vary slightly from our data, if they occured in-between our weather recording intervals... More about our weather records

Advertising

Malakal weather history for previous 24 hours

 ConditionsComfort  
Time TempWeatherWind HumidityBarometerVisibility
7:00 AM
Tue, Mar 3
81 °FClear.9 mph21%29.77 "Hg10 mi
6:30 AMN/AClear.10 mphN/A29.74 "Hg10 mi
6:00 AM82 °FClear.10 mph19%29.74 "Hg10 mi
5:30 AMN/AClear.10 mphN/A29.74 "Hg10 mi
5:00 AM84 °FClear.10 mph16%29.74 "Hg10 mi
4:30 AMN/AClear.9 mphN/A29.74 "Hg10 mi
4:00 AM84 °FClear.9 mph20%29.74 "Hg10 mi
3:30 AMN/AClear.8 mphN/A29.77 "Hg10 mi
3:00 AM84 °FClear.9 mph20%29.77 "Hg10 mi
2:30 AMN/AClear.8 mphN/A29.77 "Hg10 mi
2:00 AM86 °FClear.7 mph22%29.77 "Hg10 mi
1:30 AMN/AClear.9 mphN/A29.77 "Hg10 mi
12:30 AMN/AClear.8 mphN/A29.80 "Hg10 mi
12:00 AM90 °FClear.6 mph21%29.80 "Hg10 mi
11:30 PM
Mon, Mar 2
N/AClear.3 mphN/A29.80 "Hg10 mi
11:00 PM91 °FClear.6 mph17%29.80 "Hg10 mi
10:30 PMN/AClear.9 mphN/A29.77 "Hg10 mi
10:00 PM93 °FClear.8 mph16%29.77 "Hg10 mi
9:30 PMN/AClear.8 mphN/A29.77 "Hg10 mi
9:00 PM93 °FClear.9 mph20%29.77 "Hg10 mi
8:00 PM97 °FClear.8 mph16%29.74 "Hg10 mi
7:30 PMN/AClear.7 mphN/A29.71 "Hg10 mi
7:00 PM100 °FHaze.7 mph16%29.71 "Hg5 mi
6:30 PMN/ASunny.5 mphN/A29.71 "Hg10 mi
5:30 PMN/A10 mphN/AN/A1 mi
5:00 PM104 °FSunny.3 mph11%29.71 "Hg10 mi
4:30 PMN/ASunny.9 mphN/A29.71 "Hg10 mi
4:00 PM104 °FSunny.7 mph12%29.71 "Hg10 mi
3:30 PMN/ASunny.8 mphN/A29.71 "Hg10 mi
3:00 PM102 °FExtremely hot.8 mph14%29.74 "HgN/A
2:30 PMN/AHaze.6 mphN/A29.74 "Hg5 mi
2:00 PM99 °FHaze.9 mph17%29.77 "Hg5 mi
1:30 PMN/AHaze.8 mphN/A29.77 "Hg4 mi
1:00 PM97 °FHaze.9 mph22%29.77 "Hg4 mi
12:30 PMN/AHaze.8 mphN/A29.80 "Hg4 mi
12:00 PM91 °FHot.7 mph26%29.80 "Hg4 mi
11:00 AM86 °FPleasantly warm.8 mph29%29.83 "Hg1 mi
10:30 AMN/AHaze.10 mphN/A29.83 "Hg1 mi
10:00 AMN/ASandstorm.13 mphN/A29.83 "Hg1 mi
9:30 AMN/ASandstorm.14 mphN/A29.83 "Hg2 mi
9:00 AM81 °FHaze.6 mph8%29.83 "Hg2 mi
8:30 AMN/AHaze.6 mphN/A29.83 "Hg2 mi
8:00 AM81 °FHaze.6 mph9%29.80 "Hg2 mi
Weather by CustomWeather, © 2015

See weather overviewHow to use our weather pages